This demonstration page uses our WeatherBlox Daily Observations layout. Learn more.

Hourly Observations for February 14, 2019

Temp ( °F °C ) Dew Point ( °F °C ) Humidity (%) Winds ( mph kmh ) Pressure ( in mb ) Visibility ( mi km ) Precip ( " mm )
12:54 am 00:54 Clear 31 -0.6 29 -1.7 92 92 SSE 3 6 29.52 1000 9 14.48406 0 0
1:54 am 01:54 Clear 32 0 29 -1.7 88 88 Calm 29.5 999 10 16.0934 0 0
2:54 am 02:54 Clear 31 -0.6 29 -1.7 92 92 N 3 6 29.49 999 10 16.0934 0 0
3:54 am 03:54 Clear 28 -2.2 26 -3.3 92 92 NNW 6 9 29.48 998 7 11.26538 0 0
4:54 am 04:54 Clear with Mist and Fog 27 -2.8 25 -3.9 92 92 N 6 9 29.49 999 5 8.0467 0 0
5:54 am 05:54 Clear with Mist and Fog 26 -3.3 24 -4.4 92 92 Calm 29.5 999 6 9.65604 0 0
6:54 am 06:54 Clear with Mist and Fog 25 -3.9 24 -4.4 96 96 W 3 6 29.52 1000 6 9.65604 0 0
7:54 am 07:54 Sunny with Mist and Fog 27 -2.8 24 -4.4 89 89 N 6 9 29.54 1000 6 9.65604 0 0
8:54 am 08:54 Sunny 35 1.7 29 -1.7 78 78 undefined N/A 29.57 1001 10 16.0934 0 0
9:39 am 09:39 Mostly Cloudy with Haze 30 -1.1 25 -3.9 82 82 NNW 24 39 29.68 1005 5 8.0467 0 0
9:54 am 09:54 Cloudy with Haze 29 -1.7 24 -4.4 82 82 NNW 20 31 29.67 1005 5 8.0467 0 0
10:54 am 10:54 Cloudy with Haze 27 -2.8 20 -6.7 75 75 NNW 21 33 29.76 1008 6 9.65604 0 0
11:49 am 11:49 Cloudy 25 -4 16 -9 69 69 NNW 22 35 29.87 1011 8 12.87472 0 0
11:54 am 11:54 Cloudy 24 -4.4 16 -8.9 71 71 NNW 22 35 29.83 1010 8 12.87472 0 0
12:42 pm 12:42 Cloudy 25 -3.9 15 -9.4 66 66 N 24 39 29.89 1012 9 14.48406 0 0
12:54 pm 12:54 Cloudy 26 -3.3 15 -9.4 63 63 NNW 17 28 29.85 1011 10 16.0934 0 0
1:15 pm 13:15 Partly Cloudy 28 -2.2 15 -9.4 58 58 N 26 43 29.87 1012 10 16.0934 0 0
1:54 pm 13:54 Sunny 28 -2.2 14 -10 56 56 N 29 46 29.86 1011 10 16.0934 0 0
2:54 pm 14:54 Mostly Sunny 27 -2.8 13 -10.6 55 55 N 26 43 29.91 1013 10 16.0934 0 0
3:54 pm 15:54 Sunny 27 -2.8 11 -11.7 51 51 N 29 46 29.93 1014 10 16.0934 0 0
4:54 pm 16:54 Sunny 23 -5 9 -12.8 55 55 NNW 23 37 29.97 1015 10 16.0934 0 0
5:54 pm 17:54 Sunny 20 -6.7 7 -13.9 57 57 NNW 17 28 30.03 1017 10 16.0934 0 0
6:54 pm 18:54 Clear 19 -7.2 6 -14.4 57 57 NNW 14 22 30.1 1019 10 16.0934 0 0
7:54 pm 19:54 Clear 17 -8.3 6 -14.4 62 62 NNW 14 22 30.11 1020 10 16.0934 0 0
8:54 pm 20:54 Clear 15 -9.4 5 -15 64 64 N 16 26 30.13 1020 10 16.0934 0 0
9:54 pm 21:54 Clear 13 -10.6 3 -16.1 64 64 N 14 22 30.14 1021 10 16.0934 0 0
10:54 pm 22:54 Clear 11 -11.7 1 -17.2 64 64 N 12 19 30.19 1022 10 16.0934 0 0
11:54 pm 23:54 Cloudy 11 -11.7 1 -17.2 64 64 N 16 26 30.18 1022 10 16.0934 0 0

Powered by AerisWeather